Time,TemperatureF,DewpointF,PressureIn,WindDirection,WindDirectionDegrees,WindSpeedMPH,WindSpeedGustMPH,Humidity,HourlyPrecipIn,Conditions,Clouds,dailyrainin,SoftwareType,DateUTC
2013-06-03 00:02:00,58.3,23.5,29.68,ESE,115,1.0,3.0,26,0.00,,,0.00,meteohub,2013-06-03 06:02:00,
2013-06-03 00:07:00,58.5,23.7,29.68,ESE,108,1.0,3.0,26,0.00,,,0.00,meteohub,2013-06-03 06:07:00,
2013-06-03 00:12:00,57.9,23.2,29.68,ESE,108,0.0,3.0,26,0.00,,,0.00,meteohub,2013-06-03 06:12:00,
2013-06-03 00:17:00,57.4,23.7,29.67,ESE,108,0.0,3.0,27,0.00,,,0.00,meteohub,2013-06-03 06:17:00,
2013-06-03 00:22:00,57.2,23.5,29.68,ESE,109,0.0,3.0,27,0.00,,,0.00,meteohub,2013-06-03 06:22:00,
2013-06-03 00:27:00,57.0,23.4,29.68,SSW,205,3.0,3.0,27,0.00,,,0.00,meteohub,2013-06-03 06:27:00,
2013-06-03 00:32:00,56.7,23.0,29.68,South,191,1.0,4.0,27,0.00,,,0.00,meteohub,2013-06-03 06:32:00,
2013-06-03 00:37:00,56.1,23.4,29.67,SSE,166,0.0,4.0,28,0.00,,,0.00,meteohub,2013-06-03 06:37:00,
2013-06-03 00:42:00,55.8,23.2,29.67,ESE,120,0.0,4.0,28,0.00,,,0.00,meteohub,2013-06-03 06:42:00,
2013-06-03 00:47:00,55.4,23.7,29.67,East,93,2.0,3.0,29,0.00,,,0.00,meteohub,2013-06-03 06:47:00,
2013-06-03 00:52:00,55.4,23.7,29.67,North,349,3.0,3.0,29,0.00,,,0.00,meteohub,2013-06-03 06:52:00,
2013-06-03 00:57:00,54.0,23.2,29.67,NW,312,2.0,5.0,30,0.00,,,0.00,meteohub,2013-06-03 06:57:00,
2013-06-03 01:02:00,53.8,23.9,29.67,WSW,243,1.0,5.0,31,0.00,,,0.00,meteohub,2013-06-03 07:02:00,
2013-06-03 01:07:00,54.5,23.7,29.66,NW,323,2.0,5.0,30,0.00,,,0.00,meteohub,2013-06-03 07:07:00,
2013-06-03 01:12:00,53.6,22.8,29.67,NW,319,2.0,5.0,30,0.00,,,0.00,meteohub,2013-06-03 07:12:00,
2013-06-03 01:17:00,53.1,23.2,29.67,WNW,295,2.0,5.0,31,0.00,,,0.00,meteohub,2013-06-03 07:17:00,
2013-06-03 01:22:00,53.6,23.7,29.66,NW,306,1.0,5.0,31,0.00,,,0.00,meteohub,2013-06-03 07:22:00,
2013-06-03 01:27:00,53.8,23.0,29.66,WNW,298,2.0,4.0,30,0.00,,,0.00,meteohub,2013-06-03 07:27:00,
2013-06-03 01:32:00,54.1,23.4,29.66,WNW,291,2.0,4.0,30,0.00,,,0.00,meteohub,2013-06-03 07:32:00,
2013-06-03 01:37:00,54.1,23.4,29.66,NW,314,1.0,4.0,30,0.00,,,0.00,meteohub,2013-06-03 07:37:00,
2013-06-03 01:42:00,54.0,23.2,29.66,NW,316,2.0,4.0,30,0.00,,,0.00,meteohub,2013-06-03 07:42:00,
2013-06-03 01:47:00,54.0,23.2,29.66,NNW,328,4.0,4.0,30,0.00,,,0.00,meteohub,2013-06-03 07:47:00,
2013-06-03 01:52:00,54.5,23.7,29.66,NNW,328,4.0,5.0,30,0.00,,,0.00,meteohub,2013-06-03 07:52:00,
2013-06-03 01:57:00,54.7,23.9,29.66,NW,326,2.0,5.0,30,0.00,,,0.00,meteohub,2013-06-03 07:57:00,
2013-06-03 02:02:00,54.1,23.4,29.66,NNW,330,2.0,5.0,30,0.00,,,0.00,meteohub,2013-06-03 08:02:00,
2013-06-03 02:07:00,53.1,23.2,29.65,NW,322,2.0,5.0,31,0.00,,,0.00,meteohub,2013-06-03 08:07:00,
2013-06-03 02:12:00,52.5,23.5,29.65,NW,321,2.0,5.0,32,0.00,,,0.00,meteohub,2013-06-03 08:12:00,
2013-06-03 02:17:00,51.8,23.5,29.65,NW,321,2.0,5.0,33,0.00,,,0.00,meteohub,2013-06-03 08:17:00,
2013-06-03 02:22:00,51.6,23.4,29.65,NW,325,3.0,5.0,33,0.00,,,0.00,meteohub,2013-06-03 08:22:00,
2013-06-03 02:27:00,52.0,23.7,29.65,NW,315,1.0,5.0,33,0.00,,,0.00,meteohub,2013-06-03 08:27:00,
2013-06-03 02:32:00,52.5,23.5,29.65,NNW,331,4.0,5.0,32,0.00,,,0.00,meteohub,2013-06-03 08:32:00,
2013-06-03 02:37:00,52.5,23.5,29.65,NNW,327,3.0,5.0,32,0.00,,,0.00,meteohub,2013-06-03 08:37:00,
2013-06-03 02:42:00,52.0,23.7,29.65,NNW,329,4.0,5.0,33,0.00,,,0.00,meteohub,2013-06-03 08:42:00,
2013-06-03 02:47:00,51.6,23.4,29.65,NNW,335,3.0,5.0,33,0.00,,,0.00,meteohub,2013-06-03 08:47:00,
2013-06-03 02:52:00,51.6,23.4,29.65,NW,323,3.0,5.0,33,0.00,,,0.00,meteohub,2013-06-03 08:52:00,
2013-06-03 02:58:00,51.6,23.4,29.65,NNW,330,4.0,5.0,33,0.00,,,0.00,meteohub,2013-06-03 08:58:00,
2013-06-03 03:03:00,51.1,23.7,29.65,NW,323,3.0,5.0,34,0.00,,,0.00,meteohub,2013-06-03 09:03:00,
2013-06-03 03:08:00,50.7,23.4,29.65,NW,316,3.0,5.0,34,0.00,,,0.00,meteohub,2013-06-03 09:08:00,
2013-06-03 03:13:00,50.5,23.2,29.65,NW,322,3.0,5.0,34,0.00,,,0.00,meteohub,2013-06-03 09:13:00,
2013-06-03 03:18:00,50.4,23.7,29.65,NW,319,3.0,5.0,35,0.00,,,0.00,meteohub,2013-06-03 09:18:00,
2013-06-03 03:23:00,49.8,23.2,29.65,NW,322,3.0,5.0,35,0.00,,,0.00,meteohub,2013-06-03 09:23:00,
2013-06-03 03:28:00,50.5,23.9,29.65,NW,324,3.0,5.0,35,0.00,,,0.00,meteohub,2013-06-03 09:28:00,
2013-06-03 03:33:00,51.3,23.9,29.65,NNW,332,3.0,4.0,34,0.00,,,0.00,meteohub,2013-06-03 09:33:00,
2013-06-03 03:38:00,50.7,23.4,29.65,NNW,330,3.0,4.0,34,0.00,,,0.00,meteohub,2013-06-03 09:38:00,
2013-06-03 03:43:00,50.9,23.5,29.65,NNW,329,2.0,5.0,34,0.00,,,0.00,meteohub,2013-06-03 09:43:00,
2013-06-03 03:48:00,50.7,23.4,29.65,NW,326,2.0,5.0,34,0.00,,,0.00,meteohub,2013-06-03 09:48:00,
2013-06-03 03:53:00,49.6,23.2,29.65,NW,324,3.0,5.0,35,0.00,,,0.00,meteohub,2013-06-03 09:53:00,
2013-06-03 03:58:00,49.5,23.5,29.65,North,0,1.0,4.0,36,0.00,,,0.00,meteohub,2013-06-03 09:58:00,
2013-06-03 04:03:00,49.1,23.4,29.66,NNW,340,3.0,4.0,36,0.00,,,0.00,meteohub,2013-06-03 10:03:00,
2013-06-03 04:09:00,48.4,23.4,29.65,North,1,1.0,5.0,37,0.00,,,0.00,meteohub,2013-06-03 10:09:00,
2013-06-03 04:14:00,48.4,23.4,29.66,NW,318,3.0,5.0,37,0.00,,,0.00,meteohub,2013-06-03 10:14:00,
2013-06-03 04:19:00,47.1,23.4,29.65,NNW,345,1.0,5.0,39,0.00,,,0.00,meteohub,2013-06-03 10:19:00,
2013-06-03 04:24:00,46.9,23.2,29.66,NW,324,2.0,6.0,39,0.00,,,0.00,meteohub,2013-06-03 10:24:00,
2013-06-03 04:29:00,46.8,23.2,29.66,NW,318,2.0,6.0,39,0.00,,,0.00,meteohub,2013-06-03 10:29:00,
2013-06-03 04:34:00,46.8,23.2,29.66,WNW,287,3.0,6.0,39,0.00,,,0.00,meteohub,2013-06-03 10:34:00,
2013-06-03 04:39:00,47.3,23.5,29.66,NNW,328,3.0,6.0,39,0.00,,,0.00,meteohub,2013-06-03 10:39:00,
2013-06-03 04:44:00,47.7,23.4,29.66,NW,305,1.0,6.0,38,0.00,,,0.00,meteohub,2013-06-03 10:44:00,
2013-06-03 04:49:00,47.8,23.5,29.66,NW,315,2.0,4.0,38,0.00,,,0.00,meteohub,2013-06-03 10:49:00,
2013-06-03 04:54:00,48.2,23.2,29.67,West,262,2.0,4.0,37,0.00,,,0.00,meteohub,2013-06-03 10:54:00,
2013-06-03 04:59:00,48.9,23.7,29.66,WSW,252,0.0,4.0,37,0.00,,,0.00,meteohub,2013-06-03 10:59:00,
2013-06-03 05:04:00,49.1,23.4,29.66,ESE,111,1.0,3.0,36,0.00,,,0.00,meteohub,2013-06-03 11:04:00,
2013-06-03 05:10:00,49.3,24.1,29.66,SSE,148,3.0,3.0,37,0.00,,,0.00,meteohub,2013-06-03 11:10:00,
2013-06-03 05:15:00,49.8,24.6,29.65,SE,139,1.0,5.0,37,0.00,,,0.00,meteohub,2013-06-03 11:15:00,
2013-06-03 05:20:00,50.5,25.2,29.66,South,188,4.0,6.0,37,0.00,,,0.00,meteohub,2013-06-03 11:20:00,
2013-06-03 05:25:00,50.5,25.2,29.66,SE,136,4.0,6.0,37,0.00,,,0.00,meteohub,2013-06-03 11:25:00,
2013-06-03 05:30:00,50.5,25.2,29.66,South,183,3.0,7.0,37,0.00,,,0.00,meteohub,2013-06-03 11:30:00,
2013-06-03 05:35:00,50.4,25.7,29.66,SW,222,2.0,10.0,38,0.00,,,0.00,meteohub,2013-06-03 11:35:00,
2013-06-03 05:40:00,50.4,26.4,29.66,SSE,160,5.0,10.0,39,0.00,,,0.00,meteohub,2013-06-03 11:40:00,
2013-06-03 05:45:00,50.5,25.9,29.66,SSE,162,0.0,9.0,38,0.00,,,0.00,meteohub,2013-06-03 11:45:00,
2013-06-03 05:50:00,50.4,26.4,29.66,SSW,210,2.0,9.0,39,0.00,,,0.00,meteohub,2013-06-03 11:50:00,
2013-06-03 05:56:00,50.2,25.5,29.66,SE,139,0.0,8.0,38,0.00,,,0.00,meteohub,2013-06-03 11:56:00,
2013-06-03 06:01:00,48.4,23.9,29.66,NE,38,1.0,7.0,38,0.00,,,0.00,meteohub,2013-06-03 12:01:00,
2013-06-03 06:06:00,47.7,23.9,29.67,North,9,1.0,4.0,39,0.00,,,0.00,meteohub,2013-06-03 12:06:00,
2013-06-03 06:11:00,47.7,23.9,29.66,NNW,335,3.0,4.0,39,0.00,,,0.00,meteohub,2013-06-03 12:11:00,
2013-06-03 06:16:00,46.2,23.9,29.67,WNW,300,3.0,5.0,41,0.00,,,0.00,meteohub,2013-06-03 12:16:00,
2013-06-03 06:21:00,45.7,23.9,29.67,NNW,338,2.0,6.0,42,0.00,,,0.00,meteohub,2013-06-03 12:21:00,
2013-06-03 06:26:00,45.7,23.9,29.67,NW,325,3.0,6.0,42,0.00,,,0.00,meteohub,2013-06-03 12:26:00,
2013-06-03 06:31:00,45.5,24.3,29.67,NW,326,1.0,6.0,43,0.00,,,0.00,meteohub,2013-06-03 12:31:00,
2013-06-03 06:36:00,45.9,24.1,29.67,NW,311,2.0,8.0,42,0.00,,,0.00,meteohub,2013-06-03 12:36:00,
2013-06-03 06:42:00,45.9,24.6,29.67,NW,320,1.0,8.0,43,0.00,,,0.00,meteohub,2013-06-03 12:42:00,
2013-06-03 06:47:00,46.4,24.6,29.67,WNW,284,1.0,6.0,42,0.00,,,0.00,meteohub,2013-06-03 12:47:00,
2013-06-03 06:52:00,47.1,25.2,29.67,WNW,291,1.0,6.0,42,0.00,,,0.00,meteohub,2013-06-03 12:52:00,
2013-06-03 06:57:00,48.2,25.5,29.67,NNW,327,3.0,4.0,41,0.00,,,0.00,meteohub,2013-06-03 12:57:00,
2013-06-03 07:02:00,49.1,25.9,29.67,NNW,339,4.0,6.0,40,0.00,,,0.00,meteohub,2013-06-03 13:02:00,
2013-06-03 07:07:00,49.5,26.1,29.67,NW,325,1.0,6.0,40,0.00,,,0.00,meteohub,2013-06-03 13:07:00,
2013-06-03 07:12:00,50.2,26.8,29.66,NW,326,3.0,6.0,40,0.00,,,0.00,meteohub,2013-06-03 13:12:00,
2013-06-03 07:17:00,50.2,26.8,29.66,NNW,337,4.0,6.0,40,0.00,,,0.00,meteohub,2013-06-03 13:17:00,
2013-06-03 07:22:00,50.5,27.1,29.66,NNE,15,5.0,7.0,40,0.00,,,0.00,meteohub,2013-06-03 13:22:00,
2013-06-03 07:27:00,50.7,26.6,29.66,NW,321,3.0,7.0,39,0.00,,,0.00,meteohub,2013-06-03 13:27:00,
2013-06-03 07:33:00,50.5,26.4,29.65,NW,325,2.0,7.0,39,0.00,,,0.00,meteohub,2013-06-03 13:33:00,
2013-06-03 07:38:00,51.3,26.6,29.66,NNW,336,4.0,7.0,38,0.00,,,0.00,meteohub,2013-06-03 13:38:00,
2013-06-03 07:43:00,51.4,26.1,29.65,NW,321,1.0,7.0,37,0.00,,,0.00,meteohub,2013-06-03 13:43:00,
2013-06-03 07:48:00,51.8,27.7,29.65,NNW,333,3.0,7.0,39,0.00,,,0.00,meteohub,2013-06-03 13:48:00,
2013-06-03 07:53:00,52.5,27.7,29.65,North,359,2.0,7.0,38,0.00,,,0.00,meteohub,2013-06-03 13:53:00,
2013-06-03 07:58:00,53.2,28.2,29.65,NNW,330,5.0,7.0,38,0.00,,,0.00,meteohub,2013-06-03 13:58:00,
2013-06-03 08:03:00,53.4,27.9,29.65,NE,49,2.0,7.0,37,0.00,,,0.00,meteohub,2013-06-03 14:03:00,
2013-06-03 08:08:00,54.0,28.2,29.65,NNW,340,5.0,7.0,37,0.00,,,0.00,meteohub,2013-06-03 14:08:00,
2013-06-03 08:13:00,54.3,28.6,29.65,WNW,293,1.0,7.0,37,0.00,,,0.00,meteohub,2013-06-03 14:13:00,
2013-06-03 08:18:00,55.0,28.6,29.65,NNW,344,1.0,8.0,36,0.00,,,0.00,meteohub,2013-06-03 14:18:00,
2013-06-03 08:24:00,55.9,28.8,29.65,SW,221,0.0,8.0,35,0.00,,,0.00,meteohub,2013-06-03 14:24:00,
2013-06-03 08:29:00,56.7,29.3,29.65,NNE,16,6.0,8.0,35,0.00,,,0.00,meteohub,2013-06-03 14:29:00,
2013-06-03 08:34:00,56.8,29.5,29.65,NNW,329,2.0,6.0,35,0.00,,,0.00,meteohub,2013-06-03 14:34:00,
2013-06-03 08:39:00,57.2,30.6,29.64,East,101,5.0,6.0,36,0.00,,,0.00,meteohub,2013-06-03 14:39:00,
2013-06-03 08:44:00,58.3,30.7,29.64,SE,146,4.0,6.0,35,0.00,,,0.00,meteohub,2013-06-03 14:44:00,
2013-06-03 08:49:00,59.4,30.2,29.64,East,82,4.0,6.0,33,0.00,,,0.00,meteohub,2013-06-03 14:49:00,
2013-06-03 08:54:00,60.1,30.9,29.63,SE,129,3.0,5.0,33,0.00,,,0.00,meteohub,2013-06-03 14:54:00,
2013-06-03 08:59:00,61.0,30.9,29.63,East,89,3.0,7.0,32,0.00,,,0.00,meteohub,2013-06-03 14:59:00,
2013-06-03 09:04:00,61.0,30.9,29.63,ENE,58,3.0,7.0,32,0.00,,,0.00,meteohub,2013-06-03 15:04:00,
2013-06-03 09:09:00,61.0,30.9,29.62,SE,127,2.0,8.0,32,0.00,,,0.00,meteohub,2013-06-03 15:09:00,
2013-06-03 09:15:00,61.3,30.4,29.62,SSE,148,0.0,8.0,31,0.00,,,0.00,meteohub,2013-06-03 15:15:00,
2013-06-03 09:20:00,62.1,31.1,29.62,ENE,73,3.0,9.0,31,0.00,,,0.00,meteohub,2013-06-03 15:20:00,
2013-06-03 09:25:00,63.0,31.1,29.62,ESE,105,0.0,9.0,30,0.00,,,0.00,meteohub,2013-06-03 15:25:00,
2013-06-03 09:30:00,63.9,30.9,29.62,East,98,3.0,9.0,29,0.00,,,0.00,meteohub,2013-06-03 15:30:00,
2013-06-03 09:35:00,64.2,30.4,29.61,SE,135,9.0,9.0,28,0.00,,,0.00,meteohub,2013-06-03 15:35:00,
2013-06-03 09:40:00,64.4,31.5,29.61,SSW,211,7.0,10.0,29,0.00,,,0.00,meteohub,2013-06-03 15:40:00,
2013-06-03 09:45:00,64.8,30.0,29.61,SSE,148,3.0,11.0,27,0.00,,,0.00,meteohub,2013-06-03 15:45:00,
2013-06-03 09:51:00,65.8,30.0,29.60,ESE,114,8.0,11.0,26,0.00,,,0.00,meteohub,2013-06-03 15:51:00,
2013-06-03 09:56:00,66.0,31.1,29.60,SSE,162,7.0,12.0,27,0.00,,,0.00,meteohub,2013-06-03 15:56:00,
2013-06-03 10:01:00,66.2,30.4,29.60,SE,134,7.0,12.0,26,0.00,,,0.00,meteohub,2013-06-03 16:01:00,
2013-06-03 10:06:00,67.3,30.2,29.60,SE,140,8.0,12.0,25,0.00,,,0.00,meteohub,2013-06-03 16:06:00,
2013-06-03 10:11:00,67.8,28.6,29.59,South,190,3.0,11.0,23,0.00,,,0.00,meteohub,2013-06-03 16:11:00,
2013-06-03 10:16:00,69.4,28.9,29.59,SSE,158,7.0,11.0,22,0.00,,,0.00,meteohub,2013-06-03 16:16:00,
2013-06-03 10:22:00,70.3,22.1,29.59,West,280,5.0,12.0,16,0.00,,,0.00,meteohub,2013-06-03 16:22:00,
2013-06-03 10:27:00,70.7,20.8,29.58,WSW,245,5.0,13.0,15,0.00,,,0.00,meteohub,2013-06-03 16:27:00,
2013-06-03 10:32:00,71.4,22.8,29.59,West,267,4.0,14.0,16,0.00,,,0.00,meteohub,2013-06-03 16:32:00,
2013-06-03 10:37:00,70.5,29.8,29.59,North,356,7.0,14.0,22,0.00,,,0.00,meteohub,2013-06-03 16:37:00,
2013-06-03 10:42:00,70.2,23.4,29.58,NNE,19,5.0,14.0,17,0.00,,,0.00,meteohub,2013-06-03 16:42:00,
2013-06-03 10:47:00,70.2,20.3,29.58,NNW,338,4.0,13.0,15,0.00,,,0.00,meteohub,2013-06-03 16:47:00,
2013-06-03 10:52:00,70.9,19.2,29.59,NW,304,14.0,20.0,14,0.00,,,0.00,meteohub,2013-06-03 16:52:00,
2013-06-03 10:57:00,71.2,19.6,29.59,WSW,252,9.0,20.0,14,0.00,,,0.00,meteohub,2013-06-03 16:57:00,
2013-06-03 11:02:00,72.0,20.1,29.59,West,269,7.0,20.0,14,0.00,,,0.00,meteohub,2013-06-03 17:02:00,
2013-06-03 11:07:00,72.9,19.2,29.58,SW,224,6.0,19.0,13,0.00,,,0.00,meteohub,2013-06-03 17:07:00,
2013-06-03 11:12:00,73.2,19.4,29.59,WNW,283,9.0,16.0,13,0.00,,,0.00,meteohub,2013-06-03 17:12:00,
2013-06-03 11:17:00,73.4,19.6,29.58,WSW,249,12.0,21.0,13,0.00,,,0.00,meteohub,2013-06-03 17:17:00,
2013-06-03 11:22:00,72.7,19.0,29.59,SW,229,12.0,25.0,13,0.00,,,0.00,meteohub,2013-06-03 17:22:00,
2013-06-03 11:27:00,72.3,18.7,29.59,SW,232,10.0,25.0,13,0.00,,,0.00,meteohub,2013-06-03 17:27:00,
2013-06-03 11:32:00,71.8,18.3,29.59,WNW,301,9.0,25.0,13,0.00,,,0.00,meteohub,2013-06-03 17:32:00,
2013-06-03 11:37:00,71.8,18.3,29.58,WNW,285,5.0,21.0,13,0.00,,,0.00,meteohub,2013-06-03 17:37:00,
2013-06-03 11:42:00,71.4,18.0,29.58,NW,312,1.0,21.0,13,0.00,,,0.00,meteohub,2013-06-03 17:42:00,
2013-06-03 11:47:00,71.1,19.4,29.58,West,269,9.0,20.0,14,0.00,,,0.00,meteohub,2013-06-03 17:47:00,
2013-06-03 11:52:00,72.0,20.1,29.58,WNW,290,6.0,19.0,14,0.00,,,0.00,meteohub,2013-06-03 17:52:00,
2013-06-03 11:57:00,71.2,17.8,29.58,WSW,242,10.0,24.0,13,0.00,,,0.00,meteohub,2013-06-03 17:57:00,
2013-06-03 12:02:00,71.4,19.8,29.58,WNW,291,8.0,31.0,14,0.00,,,0.00,meteohub,2013-06-03 18:02:00,
2013-06-03 12:07:00,71.4,18.0,29.57,NNW,334,18.0,31.0,13,0.00,,,0.00,meteohub,2013-06-03 18:07:00,
2013-06-03 12:12:00,71.8,16.5,29.58,SW,232,14.0,31.0,12,0.00,,,0.00,meteohub,2013-06-03 18:12:00,
2013-06-03 12:17:00,72.0,16.5,29.58,WSW,255,2.0,22.0,12,0.00,,,0.00,meteohub,2013-06-03 18:17:00,
2013-06-03 12:22:00,72.7,17.1,29.57,WNW,285,8.0,22.0,12,0.00,,,0.00,meteohub,2013-06-03 18:22:00,
2013-06-03 12:27:00,72.1,18.5,29.57,WNW,293,8.0,22.0,13,0.00,,,0.00,meteohub,2013-06-03 18:27:00,
2013-06-03 12:32:00,72.7,17.1,29.57,West,274,16.0,22.0,12,0.00,,,0.00,meteohub,2013-06-03 18:32:00,
2013-06-03 12:37:00,73.6,19.8,29.57,North,356,4.0,26.0,13,0.00,,,0.00,meteohub,2013-06-03 18:37:00,
2013-06-03 12:42:00,72.7,19.0,29.57,NNW,344,6.0,26.0,13,0.00,,,0.00,meteohub,2013-06-03 18:42:00,
2013-06-03 12:47:00,72.0,18.5,29.57,WNW,288,7.0,26.0,13,0.00,,,0.00,meteohub,2013-06-03 18:47:00,
2013-06-03 12:52:00,72.1,20.3,29.57,NNW,328,9.0,19.0,14,0.00,,,0.00,meteohub,2013-06-03 18:52:00,
2013-06-03 12:57:00,72.0,20.1,29.57,NNW,332,11.0,19.0,14,0.00,,,0.00,meteohub,2013-06-03 18:57:00,
2013-06-03 13:02:00,71.4,19.8,29.57,NW,321,8.0,19.0,14,0.00,,,0.00,meteohub,2013-06-03 19:02:00,
2013-06-03 13:07:00,72.7,20.7,29.57,WNW,297,13.0,29.0,14,0.00,,,0.00,meteohub,2013-06-03 19:07:00,
2013-06-03 13:12:00,72.3,23.5,29.56,WNW,287,19.0,29.0,16,0.00,,,0.00,meteohub,2013-06-03 19:12:00,
2013-06-03 13:17:00,72.5,20.7,29.57,WSW,255,11.0,27.0,14,0.00,,,0.00,meteohub,2013-06-03 19:17:00,
2013-06-03 13:22:00,72.3,20.5,29.57,West,278,6.0,27.0,14,0.00,,,0.00,meteohub,2013-06-03 19:22:00,
2013-06-03 13:28:00,72.3,20.5,29.57,WNW,297,4.0,23.0,14,0.00,,,0.00,meteohub,2013-06-03 19:28:00,
2013-06-03 13:33:00,72.7,17.1,29.56,WNW,290,6.0,28.0,12,0.00,,,0.00,meteohub,2013-06-03 19:33:00,
2013-06-03 13:38:00,72.7,19.0,29.56,WNW,293,11.0,28.0,13,0.00,,,0.00,meteohub,2013-06-03 19:38:00,
2013-06-03 13:43:00,72.9,20.8,29.56,SSW,198,10.0,28.0,14,0.00,,,0.00,meteohub,2013-06-03 19:43:00,
2013-06-03 13:48:00,73.4,19.6,29.56,SW,218,14.0,23.0,13,0.00,,,0.00,meteohub,2013-06-03 19:48:00,
2013-06-03 13:53:00,73.8,19.8,29.56,WSW,242,7.0,23.0,13,0.00,,,0.00,meteohub,2013-06-03 19:53:00,
2013-06-03 13:58:00,73.9,19.9,29.55,SW,218,8.0,22.0,13,0.00,,,0.00,meteohub,2013-06-03 19:58:00,
2013-06-03 14:03:00,73.9,19.9,29.55,NW,306,10.0,22.0,13,0.00,,,0.00,meteohub,2013-06-03 20:03:00,
2013-06-03 14:09:00,73.2,19.4,29.55,NW,306,14.0,19.0,13,0.00,,,0.00,meteohub,2013-06-03 20:09:00,
2013-06-03 14:14:00,72.9,19.2,29.56,WNW,289,16.0,31.0,13,0.00,,,0.00,meteohub,2013-06-03 20:14:00,
2013-06-03 14:19:00,73.2,19.4,29.55,West,272,7.0,31.0,13,0.00,,,0.00,meteohub,2013-06-03 20:19:00,
2013-06-03 14:24:00,73.9,18.1,29.55,West,276,1.0,31.0,12,0.00,,,0.00,meteohub,2013-06-03 20:24:00,
2013-06-03 14:29:00,74.7,16.7,29.55,West,271,6.0,24.0,11,0.00,,,0.00,meteohub,2013-06-03 20:29:00,
2013-06-03 14:34:00,73.9,18.1,29.55,West,259,26.0,26.0,12,0.00,,,0.00,meteohub,2013-06-03 20:34:00,
2013-06-03 14:39:00,72.9,20.8,29.55,SSW,205,14.0,26.0,14,0.00,,,0.00,meteohub,2013-06-03 20:39:00,
2013-06-03 14:44:00,72.7,20.7,29.56,WSW,248,5.0,31.0,14,0.00,,,0.00,meteohub,2013-06-03 20:44:00,
2013-06-03 14:49:00,73.4,21.4,29.55,SW,231,13.0,31.0,14,0.00,,,0.00,meteohub,2013-06-03 20:49:00,
2013-06-03 14:54:00,73.8,19.8,29.55,WSW,256,4.0,28.0,13,0.00,,,0.00,meteohub,2013-06-03 20:54:00,
2013-06-03 15:00:00,73.6,19.8,29.55,West,271,5.0,25.0,13,0.00,,,0.00,meteohub,2013-06-03 21:00:00,
2013-06-03 15:05:00,73.6,19.8,29.55,NW,314,10.0,19.0,13,0.00,,,0.00,meteohub,2013-06-03 21:05:00,
2013-06-03 15:10:00,73.9,18.1,29.54,East,84,9.0,19.0,12,0.00,,,0.00,meteohub,2013-06-03 21:10:00,
2013-06-03 15:15:00,74.7,20.5,29.55,NNW,334,7.0,19.0,13,0.00,,,0.00,meteohub,2013-06-03 21:15:00,
2013-06-03 15:20:00,74.1,21.9,29.54,WNW,302,11.0,23.0,14,0.00,,,0.00,meteohub,2013-06-03 21:20:00,
2013-06-03 15:25:00,72.9,20.8,29.54,NW,313,8.0,24.0,14,0.00,,,0.00,meteohub,2013-06-03 21:25:00,
2013-06-03 15:30:00,72.3,22.1,29.54,NNW,342,17.0,28.0,15,0.00,,,0.00,meteohub,2013-06-03 21:30:00,
2013-06-03 15:35:00,73.0,21.0,29.54,NW,323,18.0,28.0,14,0.00,,,0.00,meteohub,2013-06-03 21:35:00,
2013-06-03 15:40:00,73.2,21.2,29.54,NNW,344,9.0,21.0,14,0.00,,,0.00,meteohub,2013-06-03 21:40:00,
2013-06-03 15:45:00,72.9,20.8,29.54,WNW,285,4.0,24.0,14,0.00,,,0.00,meteohub,2013-06-03 21:45:00,
2013-06-03 15:51:00,71.8,21.6,29.54,NE,40,1.0,24.0,15,0.00,,,0.00,meteohub,2013-06-03 21:51:00,
2013-06-03 15:56:00,72.3,22.1,29.54,SSW,208,6.0,17.0,15,0.00,,,0.00,meteohub,2013-06-03 21:56:00,
2013-06-03 16:01:00,73.9,23.4,29.54,WSW,252,7.0,16.0,15,0.00,,,0.00,meteohub,2013-06-03 22:01:00,
2013-06-03 16:06:00,73.9,19.9,29.54,WSW,256,9.0,30.0,13,0.00,,,0.00,meteohub,2013-06-03 22:06:00,
2013-06-03 16:11:00,74.3,20.3,29.54,WNW,283,7.0,30.0,13,0.00,,,0.00,meteohub,2013-06-03 22:11:00,
2013-06-03 16:16:00,74.3,20.3,29.53,WSW,252,11.0,30.0,13,0.00,,,0.00,meteohub,2013-06-03 22:16:00,
2013-06-03 16:21:00,73.9,19.9,29.53,WSW,242,15.0,29.0,13,0.00,,,0.00,meteohub,2013-06-03 22:21:00,
2013-06-03 16:26:00,73.2,21.2,29.53,WSW,248,13.0,29.0,14,0.00,,,0.00,meteohub,2013-06-03 22:26:00,
2013-06-03 16:32:00,73.9,21.7,29.54,NNW,328,10.0,29.0,14,0.00,,,0.00,meteohub,2013-06-03 22:32:00,
2013-06-03 16:37:00,73.9,21.7,29.54,WSW,255,12.0,20.0,14,0.00,,,0.00,meteohub,2013-06-03 22:37:00,
2013-06-03 16:42:00,73.6,21.4,29.54,NW,325,6.0,22.0,14,0.00,,,0.00,meteohub,2013-06-03 22:42:00,
2013-06-03 16:47:00,74.1,23.5,29.54,WNW,287,9.0,22.0,15,0.00,,,0.00,meteohub,2013-06-03 22:47:00,
2013-06-03 16:52:00,73.9,21.7,29.54,WNW,297,13.0,22.0,14,0.00,,,0.00,meteohub,2013-06-03 22:52:00,
2013-06-03 16:57:00,73.2,22.8,29.55,WNW,291,12.0,23.0,15,0.00,,,0.00,meteohub,2013-06-03 22:57:00,
2013-06-03 17:02:00,72.9,22.5,29.55,WNW,285,4.0,30.0,15,0.00,,,0.00,meteohub,2013-06-03 23:02:00,
2013-06-03 17:07:00,73.0,22.6,29.55,NW,325,8.0,30.0,15,0.00,,,0.00,meteohub,2013-06-03 23:07:00,
2013-06-03 17:12:00,73.4,23.0,29.55,WSW,252,11.0,26.0,15,0.00,,,0.00,meteohub,2013-06-03 23:12:00,
2013-06-03 17:17:00,72.9,24.1,29.55,NW,316,14.0,22.0,16,0.00,,,0.00,meteohub,2013-06-03 23:17:00,
2013-06-03 17:22:00,71.6,23.0,29.55,NW,314,5.0,23.0,16,0.00,,,0.00,meteohub,2013-06-03 23:22:00,
2013-06-03 17:27:00,70.9,23.9,29.56,WNW,293,2.0,23.0,17,0.00,,,0.00,meteohub,2013-06-03 23:27:00,
2013-06-03 17:32:00,70.5,25.0,29.56,WSW,255,4.0,23.0,18,0.00,,,0.00,meteohub,2013-06-03 23:32:00,
2013-06-03 17:37:00,69.3,27.7,29.56,NW,314,16.0,16.0,21,0.00,,,0.00,meteohub,2013-06-03 23:37:00,
2013-06-03 17:42:00,67.3,29.3,29.57,WNW,302,13.0,24.0,24,0.00,,,0.00,meteohub,2013-06-03 23:42:00,
2013-06-03 17:47:00,65.8,30.0,29.57,NW,314,11.0,24.0,26,0.00,,,0.00,meteohub,2013-06-03 23:47:00,
2013-06-03 17:52:00,64.9,31.1,29.57,West,273,11.0,28.0,28,0.00,,,0.00,meteohub,2013-06-03 23:52:00,
2013-06-03 17:58:00,64.8,30.9,29.57,WSW,240,26.0,33.0,28,0.00,,,0.00,meteohub,2013-06-03 23:58:00,
2013-06-03 18:03:00,65.1,29.3,29.57,WSW,253,25.0,33.0,26,0.00,,,0.00,meteohub,2013-06-04 00:03:00,
2013-06-03 18:08:00,65.8,30.0,29.57,North,355,6.0,32.0,26,0.00,,,0.00,meteohub,2013-06-04 00:08:00,
2013-06-03 18:13:00,65.8,28.0,29.57,NW,321,9.0,30.0,24,0.00,,,0.00,meteohub,2013-06-04 00:13:00,
2013-06-03 18:18:00,65.7,27.9,29.57,West,276,8.0,30.0,24,0.00,,,0.00,meteohub,2013-06-04 00:18:00,
2013-06-03 18:23:00,65.7,26.8,29.56,NNW,338,15.0,27.0,23,0.00,,,0.00,meteohub,2013-06-04 00:23:00,
2013-06-03 18:28:00,65.5,26.8,29.57,WSW,250,11.0,22.0,23,0.00,,,0.00,meteohub,2013-06-04 00:28:00,
2013-06-03 18:33:00,65.5,26.8,29.57,NW,323,2.0,22.0,23,0.00,,,0.00,meteohub,2013-06-04 00:33:00,
2013-06-03 18:38:00,65.1,27.5,29.57,NNW,342,8.0,22.0,24,0.00,,,0.00,meteohub,2013-06-04 00:38:00,
2013-06-03 18:43:00,64.9,28.2,29.57,NW,323,6.0,18.0,25,0.00,,,0.00,meteohub,2013-06-04 00:43:00,
2013-06-03 18:49:00,65.5,28.8,29.58,NNW,343,4.0,17.0,25,0.00,,,0.00,meteohub,2013-06-04 00:49:00,
2013-06-03 18:54:00,66.6,28.6,29.57,NW,304,5.0,17.0,24,0.00,,,0.00,meteohub,2013-06-04 00:54:00,
2013-06-03 18:59:00,67.5,27.3,29.57,NW,314,4.0,13.0,22,0.00,,,0.00,meteohub,2013-06-04 00:59:00,
2013-06-03 19:04:00,68.4,27.0,29.57,NW,304,1.0,11.0,21,0.00,,,0.00,meteohub,2013-06-04 01:04:00,
2013-06-03 19:09:00,68.9,27.3,29.58,NNW,338,2.0,9.0,21,0.00,,,0.00,meteohub,2013-06-04 01:09:00,
2013-06-03 19:14:00,69.3,26.4,29.58,NNW,340,5.0,9.0,20,0.00,,,0.00,meteohub,2013-06-04 01:14:00,
2013-06-03 19:19:00,69.3,26.4,29.58,West,274,3.0,12.0,20,0.00,,,0.00,meteohub,2013-06-04 01:19:00,
2013-06-03 19:24:00,69.6,26.8,29.59,West,265,1.0,12.0,20,0.00,,,0.00,meteohub,2013-06-04 01:24:00,
2013-06-03 19:29:00,70.2,27.1,29.59,NW,319,1.0,12.0,20,0.00,,,0.00,meteohub,2013-06-04 01:29:00,
2013-06-03 19:34:00,68.9,26.2,29.59,WSW,238,3.0,8.0,20,0.00,,,0.00,meteohub,2013-06-04 01:34:00,
2013-06-03 19:39:00,68.0,26.6,29.59,WSW,247,2.0,7.0,21,0.00,,,0.00,meteohub,2013-06-04 01:39:00,
2013-06-03 19:45:00,67.5,26.2,29.59,SSE,166,0.0,7.0,21,0.00,,,0.00,meteohub,2013-06-04 01:45:00,
2013-06-03 19:50:00,67.3,26.1,29.59,South,169,0.0,5.0,21,0.00,,,0.00,meteohub,2013-06-04 01:50:00,
2013-06-03 19:55:00,67.1,25.9,29.59,SE,144,0.0,2.0,21,0.00,,,0.00,meteohub,2013-06-04 01:55:00,
2013-06-03 20:00:00,66.6,26.6,29.59,ESE,110,1.0,1.0,22,0.00,,,0.00,meteohub,2013-06-04 02:00:00,
2013-06-03 20:05:00,66.4,26.4,29.59,WSW,242,3.0,3.0,22,0.00,,,0.00,meteohub,2013-06-04 02:05:00,
2013-06-03 20:11:00,65.7,25.7,29.60,West,274,1.0,4.0,22,0.00,,,0.00,meteohub,2013-06-04 02:11:00,
2013-06-03 20:16:00,65.7,25.7,29.60,WSW,248,1.0,4.0,22,0.00,,,0.00,meteohub,2013-06-04 02:16:00,
2013-06-03 20:21:00,65.7,26.8,29.60,SW,232,2.0,7.0,23,0.00,,,0.00,meteohub,2013-06-04 02:21:00,
2013-06-03 20:26:00,65.7,26.8,29.60,WSW,243,1.0,7.0,23,0.00,,,0.00,meteohub,2013-06-04 02:26:00,
2013-06-03 20:31:00,65.5,26.8,29.60,SSW,205,0.0,7.0,23,0.00,,,0.00,meteohub,2013-06-04 02:31:00,
2013-06-03 20:36:00,64.8,26.1,29.61,WSW,245,2.0,7.0,23,0.00,,,0.00,meteohub,2013-06-04 02:36:00,
2013-06-03 20:41:00,64.6,25.9,29.61,West,281,3.0,12.0,23,0.00,,,0.00,meteohub,2013-06-04 02:41:00,
2013-06-03 20:46:00,64.2,25.7,29.62,WNW,302,4.0,12.0,23,0.00,,,0.00,meteohub,2013-06-04 02:46:00,
2013-06-03 20:51:00,64.0,26.6,29.62,NW,314,1.0,12.0,24,0.00,,,0.00,meteohub,2013-06-04 02:51:00,
2013-06-03 20:57:00,64.0,26.6,29.62,West,280,2.0,11.0,24,0.00,,,0.00,meteohub,2013-06-04 02:57:00,
2013-06-03 21:02:00,63.9,26.4,29.62,NW,321,6.0,7.0,24,0.00,,,0.00,meteohub,2013-06-04 03:02:00,
2013-06-03 21:07:00,63.5,26.1,29.63,NW,318,2.0,9.0,24,0.00,,,0.00,meteohub,2013-06-04 03:07:00,
2013-06-03 21:12:00,62.6,27.1,29.63,NW,320,7.0,9.0,26,0.00,,,0.00,meteohub,2013-06-04 03:12:00,
2013-06-03 21:17:00,62.4,27.1,29.64,NW,323,8.0,10.0,26,0.00,,,0.00,meteohub,2013-06-04 03:17:00,
2013-06-03 21:22:00,62.4,27.1,29.64,NNW,338,10.0,13.0,26,0.00,,,0.00,meteohub,2013-06-04 03:22:00,
2013-06-03 21:27:00,63.0,27.5,29.64,NW,323,9.0,15.0,26,0.00,,,0.00,meteohub,2013-06-04 03:27:00,
2013-06-03 21:32:00,62.8,27.3,29.64,NW,325,6.0,16.0,26,0.00,,,0.00,meteohub,2013-06-04 03:32:00,
2013-06-03 21:37:00,62.4,27.1,29.64,NW,305,5.0,16.0,26,0.00,,,0.00,meteohub,2013-06-04 03:37:00,
2013-06-03 21:42:00,61.7,27.3,29.64,NNW,330,6.0,16.0,27,0.00,,,0.00,meteohub,2013-06-04 03:42:00,
2013-06-03 21:47:00,61.7,27.3,29.64,NNW,334,8.0,14.0,27,0.00,,,0.00,meteohub,2013-06-04 03:47:00,
2013-06-03 21:53:00,61.9,27.5,29.64,NW,322,6.0,13.0,27,0.00,,,0.00,meteohub,2013-06-04 03:53:00,
2013-06-03 21:58:00,62.1,27.7,29.65,NW,323,7.0,13.0,27,0.00,,,0.00,meteohub,2013-06-04 03:58:00,
2013-06-03 22:01:00,62.1,27.7,29.65,NW,312,8.0,12.0,27,0.00,,,0.00,meteohub,2013-06-04 04:01:00,
2013-06-03 22:02:00,62.1,27.7,29.65,NNW,333,9.0,12.0,27,0.00,,,0.00,meteohub,2013-06-04 04:02:00,
2013-06-03 22:05:00,62.1,27.7,29.65,NNW,329,4.0,14.0,27,0.00,,,0.00,meteohub,2013-06-04 04:05:00,
2013-06-03 22:07:00,62.1,27.7,29.65,NNW,340,5.0,14.0,27,0.00,,,0.00,meteohub,2013-06-04 04:07:00,
2013-06-03 22:12:00,61.3,27.9,29.65,NNE,22,5.0,14.0,28,0.00,,,0.00,meteohub,2013-06-04 04:12:00,
2013-06-03 22:17:00,59.7,28.2,29.65,North,7,4.0,13.0,30,0.00,,,0.00,meteohub,2013-06-04 04:17:00,
2013-06-03 22:22:00,58.6,28.9,29.65,NNE,16,2.0,9.0,32,0.00,,,0.00,meteohub,2013-06-04 04:22:00,
2013-06-03 22:27:00,58.5,28.8,29.65,NW,322,2.0,8.0,32,0.00,,,0.00,meteohub,2013-06-04 04:27:00,
2013-06-03 22:32:00,58.3,28.6,29.65,NE,36,1.0,8.0,32,0.00,,,0.00,meteohub,2013-06-04 04:32:00,
2013-06-03 22:37:00,58.8,28.2,29.65,SW,224,0.0,5.0,31,0.00,,,0.00,meteohub,2013-06-04 04:37:00,
2013-06-03 22:42:00,59.4,28.8,29.65,NW,316,2.0,4.0,31,0.00,,,0.00,meteohub,2013-06-04 04:42:00,
2013-06-03 22:47:00,59.0,28.4,29.65,NW,318,2.0,6.0,31,0.00,,,0.00,meteohub,2013-06-04 04:47:00,
2013-06-03 22:52:00,58.8,28.2,29.65,NNW,338,2.0,6.0,31,0.00,,,0.00,meteohub,2013-06-04 04:52:00,
2013-06-03 22:57:00,58.6,28.0,29.65,WNW,294,1.0,4.0,31,0.00,,,0.00,meteohub,2013-06-04 04:57:00,
2013-06-03 23:02:00,58.3,28.6,29.65,WNW,283,3.0,5.0,32,0.00,,,0.00,meteohub,2013-06-04 05:02:00,
2013-06-03 23:07:00,58.5,28.8,29.65,NW,321,4.0,5.0,32,0.00,,,0.00,meteohub,2013-06-04 05:07:00,
2013-06-03 23:12:00,58.6,28.0,29.65,NNW,330,1.0,6.0,31,0.00,,,0.00,meteohub,2013-06-04 05:12:00,
2013-06-03 23:17:00,57.4,27.7,29.65,South,186,2.0,6.0,32,0.00,,,0.00,meteohub,2013-06-04 05:17:00,
2013-06-03 23:22:00,56.3,27.5,29.65,SW,236,5.0,6.0,33,0.00,,,0.00,meteohub,2013-06-04 05:22:00,
2013-06-03 23:27:00,55.9,27.3,29.65,ESE,120,1.0,7.0,33,0.00,,,0.00,meteohub,2013-06-04 05:27:00,
2013-06-03 23:32:00,55.6,28.4,29.65,ENE,65,0.0,7.0,35,0.00,,,0.00,meteohub,2013-06-04 05:32:00,
2013-06-03 23:37:00,54.9,27.7,29.65,WNW,297,2.0,5.0,35,0.00,,,0.00,meteohub,2013-06-04 05:37:00,
2013-06-03 23:42:00,54.7,28.2,29.65,NNW,335,1.0,5.0,36,0.00,,,0.00,meteohub,2013-06-04 05:42:00,
2013-06-03 23:47:00,55.2,28.0,29.66,West,266,2.0,6.0,35,0.00,,,0.00,meteohub,2013-06-04 05:47:00,
2013-06-03 23:52:00,55.2,28.0,29.65,WNW,286,0.0,6.0,35,0.00,,,0.00,meteohub,2013-06-04 05:52:00,
2013-06-03 23:58:00,55.8,28.6,29.66,NNW,330,3.0,4.0,35,0.00,,,0.00,meteohub,2013-06-04 05:58:00,